Location: ????????
(55.6333°N, 37.7000°E)
Time: 14:36:12
(UTC+00:00)

Meteor 2-6 Rocket - Pass Details

Date: 19 May 2025
Orbit: 804 x 914 km, 81.3° (Epoch: 19 June)

Event Time Altitude Azimuth Distance (km) Brightness Sun altitude
Exits shadow 19:48:03 - 196° (SSW) 2,837 6.5 -11.6°
Reaches altitude 10° 19:48:47 10° 197° (SSW) 2,561 6.3 -11.7°
Maximum altitude 19:54:38 81° 284° (WNW) 895 4.4 -12.0°
Drops below altitude 10° 20:00:21 10° 13° (NNE) 2,507 7.6 -12.3°
Sets 20:02:46 0° 15° (NNE) 3,431 8.4 -12.4°
